When you browse on this site, cookies collect data to enhance your experience and personalize the content and advertising you see.
Visit our Privacy Policy to learn more. By continuing to use the site, you agree to this use of cookies and data.
  • In Hungary
  • List of Countries
  • For 7 days
  • Water Temperature
  • Weather Map
  • News
  • Weather Widgets
  • user-avatar
    Login

    Hourly Weather Ihala

    Today, 25 August, Sunday

    Time Temperature Precipitation Wind Pressure Humidity
    00:00 +11°C° 0 mm 3 mps 760 mmHg 95%
    01:00 +11°C° 0 mm 3 mps 760 mmHg 96%
    02:00 +10°C° 0 mm 2 mps 761 mmHg 97%
    03:00 +10°C° 0 mm 2 mps 761 mmHg 97%
    04:00 +10°C° 0 mm 2 mps 761 mmHg 97%
    05:00 +10°C° 0 mm 2 mps 762 mmHg 97%
    06:00 +12°C° 0 mm 1 mps 762 mmHg 91%
    07:00 +14°C° 0 mm 1 mps 762 mmHg 84%
    08:00 +16°C° 0 mm 1 mps 762 mmHg 77%
    09:00 +18°C° 0 mm 1 mps 762 mmHg 71%
    10:00 +19°C° 0 mm 1 mps 762 mmHg 64%
    11:00 +20°C° 0 mm 1 mps 762 mmHg 58%
    12:00 +20°C° 0 mm 2 mps 762 mmHg 55%
    13:00 +20°C° 0 mm 2 mps 762 mmHg 52%
    14:00 +21°C° 0 mm 2 mps 762 mmHg 48%
    15:00 +20°C° 0 mm 2 mps 762 mmHg 50%
    16:00 +20°C° 0 mm 2 mps 761 mmHg 52%
    17:00 +19°C° 0 mm 2 mps 761 mmHg 53%
    18:00 +18°C° 0 mm 2 mps 761 mmHg 61%
    19:00 +16°C° 0 mm 3 mps 760 mmHg 68%
    20:00 +14°C° 0 mm 3 mps 760 mmHg 75%
    21:00 +14°C° 0 mm 3 mps 760 mmHg 77%
    22:00 +13°C° 0 mm 3 mps 760 mmHg 80%
    23:00 +13°C° 0 mm 4 mps 759 mmHg 82%

    Tomorrow, 26 August, Monday

    Time Temperature Precipitation Wind Pressure Humidity
    00:00 +13°C° 0 mm 4 mps 759 mmHg 82%
    01:00 +13°C° 0 mm 4 mps 759 mmHg 82%
    02:00 +12°C° 0 mm 5 mps 758 mmHg 82%
    03:00 +13°C° 0 mm 5 mps 758 mmHg 81%
    04:00 +13°C° 0 mm 5 mps 758 mmHg 81%
    05:00 +14°C° 0 mm 5 mps 757 mmHg 80%
    06:00 +14°C° 0 mm 5 mps 757 mmHg 79%
    07:00 +15°C° 0 mm 5 mps 757 mmHg 79%
    08:00 +16°C° 0 mm 5 mps 756 mmHg 78%
    09:00 +17°C° 0.1 mm 5 mps 756 mmHg 76%
    10:00 +19°C° 0.1 mm 5 mps 756 mmHg 74%
    11:00 +19°C° 0.1 mm 5 mps 756 mmHg 72%
    12:00 +20°C° 0.1 mm 4 mps 756 mmHg 68%
    13:00 +20°C° 0.1 mm 4 mps 756 mmHg 64%
    14:00 +21°C° 0.1 mm 4 mps 755 mmHg 61%
    15:00 +21°C° 0 mm 4 mps 755 mmHg 58%
    16:00 +20°C° 0 mm 4 mps 755 mmHg 56%
    17:00 +20°C° 0 mm 4 mps 755 mmHg 54%
    18:00 +18°C° 0 mm 4 mps 755 mmHg 57%
    19:00 +17°C° 0 mm 4 mps 756 mmHg 61%
    20:00 +14°C° 0 mm 3 mps 756 mmHg 64%
    21:00 +13°C° 0 mm 3 mps 756 mmHg 67%
    22:00 +13°C° 0 mm 3 mps 756 mmHg 70%
    23:00 +12°C° 0 mm 3 mps 757 mmHg 73%

    Day after tomorrow, 27 August, Tuesday

    Time Temperature Precipitation Wind Pressure Humidity
    00:00 +12°C° 0 mm 3 mps 757 mmHg 75%
    01:00 +11°C° 0 mm 3 mps 757 mmHg 77%
    02:00 +11°C° 0 mm 3 mps 758 mmHg 79%
    03:00 +10°C° 0 mm 3 mps 758 mmHg 81%
    04:00 +10°C° 0 mm 3 mps 758 mmHg 83%
    05:00 +10°C° 0 mm 3 mps 758 mmHg 85%
    06:00 +11°C° 0 mm 3 mps 759 mmHg 79%
    07:00 +13°C° 0 mm 3 mps 759 mmHg 73%
    08:00 +14°C° 0 mm 3 mps 759 mmHg 67%
    09:00 +17°C° 0 mm 2 mps 759 mmHg 62%
    10:00 +18°C° 0 mm 2 mps 760 mmHg 58%
    11:00 +19°C° 0 mm 2 mps 760 mmHg 53%
    12:00 +20°C° 0 mm 2 mps 760 mmHg 51%
    13:00 +20°C° 0 mm 2 mps 760 mmHg 49%
    14:00 +21°C° 0 mm 2 mps 760 mmHg 48%
    15:00 +21°C° 0 mm 2 mps 760 mmHg 49%
    16:00 +20°C° 0 mm 2 mps 760 mmHg 50%
    17:00 +20°C° 0 mm 2 mps 760 mmHg 52%
    18:00 +18°C° 0 mm 2 mps 761 mmHg 59%
    19:00 +16°C° 0 mm 2 mps 761 mmHg 67%
    20:00 +14°C° 0 mm 2 mps 761 mmHg 75%
    21:00 +14°C° 0 mm 2 mps 761 mmHg 78%
    22:00 +12°C° 0 mm 3 mps 762 mmHg 81%
    23:00 +11°C° 0 mm 3 mps 762 mmHg 84%

    28 August, Wednesday

    Time Temperature Precipitation Wind Pressure Humidity
    00:00 +11°C° 0 mm 3 mps 762 mmHg 83%
    01:00 +11°C° 0 mm 3 mps 762 mmHg 83%
    02:00 +11°C° 0 mm 3 mps 763 mmHg 82%
    03:00 +11°C° 0 mm 3 mps 763 mmHg 80%
    04:00 +11°C° 0 mm 3 mps 763 mmHg 79%
    05:00 +11°C° 0 mm 3 mps 763 mmHg 77%
    06:00 +11°C° 0 mm 4 mps 763 mmHg 75%
    07:00 +12°C° 0 mm 4 mps 763 mmHg 72%
    08:00 +12°C° 0 mm 4 mps 763 mmHg 70%
    09:00 +13°C° 0 mm 4 mps 763 mmHg 67%
    10:00 +14°C° 0 mm 4 mps 763 mmHg 64%
    11:00 +14°C° 0 mm 3 mps 763 mmHg 62%
    12:00 +16°C° 0 mm 3 mps 763 mmHg 59%
    13:00 +17°C° 0 mm 3 mps 763 mmHg 57%
    14:00 +18°C° 0 mm 3 mps 763 mmHg 55%
    15:00 +18°C° 0 mm 3 mps 763 mmHg 57%
    16:00 +18°C° 0 mm 3 mps 762 mmHg 59%
    17:00 +18°C° 0 mm 3 mps 762 mmHg 61%
    18:00 +16°C° 0 mm 3 mps 762 mmHg 68%
    19:00 +13°C° 0 mm 3 mps 762 mmHg 75%
    20:00 +12°C° 0 mm 3 mps 762 mmHg 82%
    21:00 +12°C° 0 mm 2 mps 762 mmHg 84%
    22:00 +12°C° 0 mm 2 mps 763 mmHg 85%
    23:00 +12°C° 0 mm 2 mps 763 mmHg 86%

    29 August, Thursday

    Time Temperature Precipitation Wind Pressure Humidity
    00:00 +12°C° 0 mm 2 mps 763 mmHg 87%
    01:00 +12°C° 0 mm 2 mps 763 mmHg 87%
    02:00 +12°C° 0 mm 2 mps 763 mmHg 87%
    03:00 +10°C° 0 mm 2 mps 763 mmHg 89%
    04:00 +10°C° 0 mm 2 mps 763 mmHg 90%
    05:00 +10°C° 0 mm 2 mps 763 mmHg 91%
    06:00 +13°C° 0 mm 2 mps 763 mmHg 85%
    07:00 +15°C° 0 mm 2 mps 763 mmHg 79%
    08:00 +16°C° 0 mm 2 mps 763 mmHg 73%
    09:00 +18°C° 0 mm 2 mps 763 mmHg 67%
    10:00 +20°C° 0 mm 2 mps 763 mmHg 61%
    11:00 +23°C° 0 mm 2 mps 763 mmHg 54%
    12:00 +22°C° 0 mm 3 mps 763 mmHg 52%
    13:00 +24°C° 0 mm 3 mps 762 mmHg 50%
    14:00 +24°C° 0 mm 3 mps 762 mmHg 48%
    15:00 +24°C° 0 mm 3 mps 762 mmHg 50%
    16:00 +22°C° 0 mm 3 mps 762 mmHg 51%
    17:00 +22°C° 0 mm 3 mps 762 mmHg 52%
    18:00 +20°C° 0 mm 3 mps 762 mmHg 58%
    19:00 +18°C° 0 mm 2 mps 762 mmHg 64%
    20:00 +15°C° 0 mm 2 mps 762 mmHg 70%
    21:00 +15°C° 0 mm 2 mps 762 mmHg 70%
    22:00 +14°C° 0 mm 2 mps 762 mmHg 71%
    23:00 +14°C° 0 mm 2 mps 762 mmHg 71%

    30 August, Friday

    Time Temperature Precipitation Wind Pressure Humidity
    00:00 +13°C° 0 mm 2 mps 762 mmHg 74%
    01:00 +13°C° 0 mm 2 mps 762 mmHg 77%
    02:00 +12°C° 0 mm 2 mps 762 mmHg 80%
    03:00 +12°C° 0 mm 2 mps 761 mmHg 82%
    04:00 +12°C° 0 mm 2 mps 761 mmHg 84%
    05:00 +12°C° 0 mm 2 mps 761 mmHg 86%
    06:00 +13°C° 0 mm 2 mps 761 mmHg 79%
    07:00 +15°C° 0 mm 2 mps 761 mmHg 71%
    08:00 +17°C° 0 mm 2 mps 761 mmHg 64%
    09:00 +18°C° 0 mm 2 mps 761 mmHg 58%
    10:00 +20°C° 0 mm 2 mps 761 mmHg 52%
    11:00 +21°C° 0 mm 3 mps 761 mmHg 46%
    12:00 +22°C° 0 mm 3 mps 760 mmHg 44%
    13:00 +22°C° 0 mm 3 mps 760 mmHg 43%
    14:00 +23°C° 0 mm 4 mps 759 mmHg 41%
    15:00 +22°C° 0 mm 4 mps 759 mmHg 43%
    16:00 +22°C° 0 mm 3 mps 759 mmHg 46%
    17:00 +21°C° 0 mm 3 mps 759 mmHg 48%
    18:00 +19°C° 0 mm 3 mps 759 mmHg 56%
    19:00 +17°C° 0 mm 2 mps 759 mmHg 65%
    20:00 +15°C° 0 mm 2 mps 759 mmHg 73%
    21:00 +14°C° 0 mm 2 mps 758 mmHg 76%
    22:00 +14°C° 0 mm 2 mps 758 mmHg 78%
    23:00 +13°C° 0 mm 2 mps 758 mmHg 81%
    Show more